RH
34 32 32 34 37 38 40 42 44 42 42 44 47 48 44 40 40 43 46 53 57 56 56 53 52 54 50 49 50 55 63 61 66 61 68 74 66 64 68 73 60 47 44 38 36 31 30
33 32 33 34 37 38 41 42 41 42 44 48 51 46 37 32 30 31 37 44 46 47 44 45 40 38 36 39 41 44 45 52 54 62 75 63 60 68 62 69 56 49 43 35 37 34 30
32 32 34 34 35 37 40 42 43 45 48 47 35 31 32 34 31 30 29 30 31 34 34 33 35 37 37 39 39 38 43 42 44 47 46 50 61 66 64 62 53 50 51 41 34 38 33
32 32 35 39 41 41 42 42 40 42 44 40 35 32 38 38 36 35 35 34 35 35 35 36 36 36 36 36 38 39 40 43 44 44 47 55 60 61 64 63 63 60 54 54 38 36 34
31 32 36 38 38 39 45 42 37 41 44 43 38 34 35 36 39 40 42 42 42 40 38 38 39 38 36 36 34 33 34 38 41 40 43 44 44 46 47 50 49 50 57 60 46 38 39
32 33 35 36 35 37 39 37 37 37 40 42 42 42 39 37 36 37 38 37 37 38 38 38 37 37 36 37 36 35 36 37 41 43 44 45 44 43 43 44 43 50 56 53 51 38 40
33 34 34 35 36 35 34 36 36 40 44 46 43 42 42 38 34 35 39 40 41 35 36 36 36 37 39 39 37 38 40 42 45 47 48 48 46 46 44 44 49 53 64 65 59 45 35
31 29 29 30 33 31 33 35 36 38 41 43 45 43 45 48 43 38 38 40 42 40 36 38 38 40 42 42 40 39 40 43 48 49 49 48 49 48 48 43 45 61 69 47 42 38 37
31 28 28 29 30 30 31 31 33 36 40 43 43 45 48 47 41 40 41 40 37 39 38 39 42 44 44 43 41 40 38 43 45 47 45 48 53 53 52 48 46 46 49 38 31 35 38
31 28 26 28 28 30 32 32 31 32 36 40 42 44 49 46 43 41 39 37 39 39 40 41 42 44 42 43 42 38 38 40 42 43 42 50 57 59 56 50 46 55 36 39 37 37 41
35 32 28 29 32 31 31 31 33 35 36 38 38 38 44 47 44 43 42 42 42 42 42 44 42 41 39 40 40 39 37 36 41 45 48 44 53 59 57 50 49 60 57 40 38 37 42
36 34 38 35 32 32 31 33 34 34 35 37 40 42 47 49 46 46 45 45 46 44 42 40 39 39 40 40 39 37 38 37 38 40 38 37 36 41 45 48 54 57 50 47 42 36 46
38 40 37 37 37 38 36 38 38 40 43 48 52 51 48 48 48 46 43 42 40 39 40 42 41 42 42 40 39 39 37 35 34 37 39 34 35 39 44 47 60 51 48 36 36 38 40
35 38 38 36 42 39 40 43 44 48 53 57 55 55 53 50 48 47 47 43 42 42 44 44 42 42 40 37 39 38 35 32 31 35 36 35 36 41 46 58 56 56 42 35 36 38 37
35 36 38 43 43 44 42 44 49 52 55 58 58 56 55 58 59 54 50 48 47 45 43 39 38 35 35 36 37 34 32 31 32 34 36 35 39 48 60 48 46 40 41 40 41 40 37
34 35 38 37 37 40 42 42 44 46 49 55 58 59 56 58 57 56 51 48 44 41 40 40 38 36 36 34 30 27 32 34 38 36 35 38 47 60 42 36 38 42 46 41 44 40 34
36 37 37 40 42 41 40 41 40 42 41 46 59 66 64 61 53 44 40 39 38 37 38 38 36 35 33 29 28 30 32 32 36 37 36 44 61 51 36 37 42 43 41 40 42 44 38
31 32 34 34 39 48 47 44 40 40 42 40 38 39 45 44 43 41 40 39 40 39 38 38 38 32 31 30 29 31 34 34 34 33 43 66 59 33 28 36 38 41 37 39 44 44 50
41 42 42 41 43 48 52 53 48 45 44 46 48 45 42 41 42 41 41 40 40 38 33 30 31 30 27 27 27 26 29 33 49 67 70 67 64 53 43 36 39 39 35 41 53 51 69
51 46 45 46 46 46 48 50 50 47 45 44 42 43 44 42 41 40 37 35 33 31 30 30 30 29 28 28 29 31 36 59 79 83 77 70 69 53 48 41 39 38 40 56 67 67 62
35 37 36 42 50 50 50 52 53 50 50 48 43 42 40 39 38 38 35 32 30 27 26 29 27 27 26 30 35 34 57 77 81 77 74 60 50 39 37 43 45 38 51 70 88 81 87
27 30 26 29 32 35 39 41 42 44 40 36 35 34 34 30 26 24 24 24 25 25 23 26 27 33 40 42 40 45 78 82 73 62 40 37 37 38 39 50 48 46 74 90 81 86 77
59 48 35 25 25 27 29 30 29 29 29 28 25 27 25 26 29 29 32 30 28 30 33 38 44 50 57 63 69 75 80 67 38 35 38 39 37 43 40 52 66 70 78 74 69 81 95
82 80 74 61 60 55 37 33 28 27 25 27 33 29 29 30 52 70 61 60 69 66 64 66 65 68 74 76 83 84 57 38 36 40 44 36 47 41 53 57 75 82 83 75 68 94 100
75 93 96 94 98 84 77 76 70 57 61 75 79 68 67 68 76 94 91 89 89 82 80 79 78 74 80 66 45 39 38 38 41 42 52 49 69 84 99 94 90 71 88 100 100 79 100
58 54 56 83 99 100 100 100 95 97 100 98 80 72 75 79 81 83 77 76 71 60 43 39 40 43 46 43 39 36 38 39 34 37 39 46 51 69 87 96 84 84 100 100 100 100 100
73 75 70 64 53 58 80 99 100 99 99 96 100 92 84 75 79 77 68 62 53 46 42 43 39 32 32 34 34 40 41 44 57 61 45 77 93 90 92 100 99 100 100 100 100 100 100
88 70 64 66 65 62 65 69 63 70 81 88 97 95 88 79 81 87 84 68 57 41 40 35 32 32 34 41 45 56 61 70 74 80 76 89 100 100 100 100 100 100 100 100 100 100 100
44 41 50 61 59 74 73 67 77 79 83 75 74 68 48 36 36 44 46 39 32 30 33 33 35 42 45 56 74 86 65 78 100 99 100 99 100 100 100 100 100 100 100 100 100 100 100
Wind_Speed
42 43 43 42 40 38 35 33 31 28 26 24 22 20 18 15 15 15 14 14 12 10 9 9 10 11 13 15 17 18 20 23 25 24 29 33 36 38 40 41 42 44 47 48 50 48 45
37 39 37 37 35 34 31 29 26 24 22 20 18 17 16 15 14 13 12 11 10 8 8 9 10 11 14 17 20 22 23 25 28 28 31 34 37 40 41 42 42 42 45 43 48 52 52
34 34 34 33 32 30 27 25 22 20 19 19 17 16 14 12 12 12 12 10 7 6 8 8 8 10 13 17 21 23 25 27 29 31 34 36 37 41 42 42 44 46 46 46 47 51 51
30 31 30 30 28 25 23 21 19 18 18 18 16 14 13 11 11 8 7 5 5 6 6 8 10 13 16 18 21 23 25 27 29 31 34 36 38 41 41 45 47 49 49 49 48 49 55
28 28 28 27 25 23 21 19 18 16 16 15 13 12 10 8 7 5 4 3 3 4 6 8 11 15 17 21 24 27 27 27 30 33 34 37 40 42 45 48 51 51 50 52 51 49 53
29 28 27 24 23 21 20 18 16 14 13 13 12 9 8 6 6 3 2 2 2 4 6 9 13 17 21 25 27 28 29 31 33 35 37 39 43 47 50 53 54 53 54 55 56 53 58
28 28 25 23 22 21 19 18 16 15 13 12 11 9 8 7 6 6 6 7 8 9 11 14 17 21 25 27 28 29 31 32 33 36 38 40 44 47 51 54 55 52 55 58 55 56 58
29 26 26 24 24 21 20 19 17 16 15 14 12 10 10 9 9 9 10 11 13 14 16 19 21 24 26 28 30 32 34 35 36 39 41 43 46 49 53 56 59 55 55 57 55 57 58
29 27 27 25 25 23 21 19 19 20 19 16 14 13 13 14 13 14 16 16 17 18 19 21 24 27 30 31 34 36 37 38 40 42 43 46 48 52 56 59 61 59 56 56 57 62 62
30 31 29 28 28 25 24 22 21 23 22 21 19 18 18 18 17 17 16 16 19 22 24 25 28 31 33 36 38 38 41 43 44 46 46 49 50 56 59 62 64 64 59 58 62 69 67
31 32 32 31 30 28 27 25 24 23 24 24 24 24 22 22 22 22 22 23 26 28 29 30 34 36 38 41 42 43 45 46 48 50 50 51 54 57 62 64 66 66 62 60 63 70 71
36 36 34 33 33 32 31 29 29 29 27 27 27 27 27 26 26 27 28 30 32 33 35 37 39 40 42 43 45 48 50 51 52 52 54 55 58 60 64 66 68 66 64 64 67 66 67
39 39 39 36 36 35 35 33 32 32 32 31 30 30 31 30 31 33 34 36 37 38 40 42 43 44 46 48 50 52 55 55 56 57 58 59 61 63 66 68 69 68 69 69 68 66 68
44 43 43 41 40 39 38 37 36 36 35 35 35 35 35 36 37 38 39 40 42 43 45 46 47 48 50 53 55 57 59 60 61 61 61 63 65 66 68 70 69 70 75 76 74 72 68
50 48 46 46 45 44 44 43 41 40 41 41 41 41 41 41 42 43 44 44 46 48 49 50 52 53 56 58 59 61 62 62 63 63 63 63 69 70 69 70 70 72 77 77 78 75 71
57 54 52 51 51 51 49 48 47 46 45 45 46 46 46 47 47 48 48 49 51 53 54 55 57 60 61 62 62 62 65 65 66 66 67 66 66 70 71 71 73 80 82 83 81 80 77
62 60 59 58 56 55 55 55 53 53 52 51 51 50 51 52 52 53 54 56 58 58 59 60 63 64 65 65 65 65 66 68 68 69 70 66 65 71 74 72 75 78 80 81 83 83 87
68 67 66 64 61 61 61 60 60 59 59 59 57 56 58 58 59 61 61 62 62 64 65 66 67 67 67 67 66 69 71 72 72 73 69 68 67 71 75 79 79 79 82 84 92 91 93
69 69 69 68 67 67 66 67 66 65 65 64 64 63 64 64 64 65 65 66 67 68 70 68 69 71 72 71 71 73 77 75 72 70 69 72 74 78 81 83 85 84 88 96 100 97 101
72 72 72 71 71 70 71 72 71 70 70 69 69 68 68 68 68 68 69 69 71 72 72 73 74 76 75 75 77 73 71 70 70 74 80 80 81 87 89 89 90 87 84 98 102 107 109
78 77 77 77 77 77 77 76 76 76 76 75 73 71 72 71 72 73 73 74 77 77 76 77 77 80 77 74 77 76 73 74 78 82 85 89 87 89 90 90 89 86 92 103 106 107 115
83 86 84 81 82 79 78 81 82 83 79 77 77 79 77 75 76 77 78 78 78 80 78 78 79 78 77 74 78 74 75 80 84 87 89 93 94 93 83 98 94 93 101 105 107 108 116
76 81 82 81 84 84 84 84 86 85 85 84 82 80 79 80 81 82 82 82 82 81 79 79 78 76 75 75 76 80 84 87 89 90 93 94 95 96 91 97 101 95 102 107 111 115 121
79 78 77 77 76 78 81 83 86 87 87 83 83 81 80 78 75 74 75 75 76 76 74 77 80 81 81 83 87 89 87 91 95 96 97 93 96 100 104 109 111 108 113 116 121 119 124
87 84 82 81 80 79 79 78 78 80 80 80 75 75 75 72 73 76 77 77 80 81 81 82 85 87 87 87 90 91 93 93 97 95 94 100 106 109 112 113 114 112 119 123 125 125 128
95 94 92 89 88 85 85 84 84 83 85 86 85 83 81 79 78 85 85 86 85 86 85 85 85 89 91 92 97 100 102 98 94 89 94 98 104 111 115 120 124 122 122 126 131 129 132
102 101 101 99 96 94 92 91 90 90 92 90 92 94 92 91 90 90 91 92 94 94 94 95 97 96 97 101 102 103 105 106 105 104 105 111 112 116 118 124 126 127 128 130 133 136 138
109 107 107 105 103 102 101 100 100 99 98 98 98 99 101 99 95 97 99 99 103 101 103 103 103 102 105 106 107 109 109 109 112 113 112 114 118 121 126 130 133 132 132 134 135 138 138
115 114 112 112 111 110 108 107 107 106 106 107 103 107 107 106 102 101 102 104 107 107 107 109 109 108 111 110 114 114 113 116 117 120 121 123 124 129 132 134 135 135 137 137 141 142 140
Wind_Direction
129 129 130 131 133 134 135 133 132 130 127 126 125 122 116 113 116 117 121 115 111 101 91 68 51 37 26 19 12 6 4 3 2 356 355 355 356 353 353 355 1 8 10 9 4 1 359
133 134 135 138 138 138 139 138 136 133 132 130 127 125 125 121 117 119 121 118 113 105 81 60 42 36 26 21 18 13 7 6 4 359 353 352 355 351 351 353 355 359 5 6 3 359 356
140 140 140 143 145 145 144 143 139 138 138 133 130 129 127 128 122 114 113 108 104 91 69 52 37 20 14 9 7 4 3 4 0 357 353 354 352 348 351 352 350 351 357 2 4 356 355
149 149 149 150 150 150 150 149 150 150 147 142 138 138 139 133 122 116 104 84 57 44 31 20 5 1 360 358 358 356 355 353 353 354 355 355 351 348 350 347 346 346 348 353 358 357 351
159 159 161 160 162 162 160 159 159 160 156 153 152 145 147 149 141 130 115 93 30 2 357 346 343 346 348 350 352 352 350 348 351 351 352 350 348 348 347 346 345 345 344 346 347 353 354
169 171 172 174 175 174 174 174 173 171 169 172 174 172 173 181 181 192 217 251 319 326 322 329 335 338 343 343 343 344 344 345 345 345 343 344 344 346 347 346 345 346 344 344 343 344 344
181 181 185 186 186 187 189 188 189 188 190 192 195 202 207 216 229 248 261 275 297 306 315 324 329 334 335 335 336 336 338 339 337 338 337 338 341 342 344 344 345 344 343 342 342 341 341
191 193 196 201 197 198 201 205 204 208 210 211 216 230 245 254 256 259 261 268 281 292 303 315 321 326 326 327 326 328 332 331 331 331 332 334 336 338 340 341 343 340 341 340 338 337 339
202 204 206 207 208 212 216 222 222 222 225 226 232 249 255 258 263 271 271 271 274 286 296 305 311 318 318 318 320 323 326 326 326 326 328 331 333 333 335 336 338 338 337 338 338 339 338
212 211 215 216 218 222 224 228 229 234 236 237 243 251 254 258 268 276 277 279 282 288 295 301 305 308 311 312 315 317 321 321 321 323 326 327 329 329 329 331 334 334 335 334 336 337 334
220 218 219 221 222 227 233 240 244 245 243 243 250 258 259 263 268 273 277 282 286 290 295 299 303 307 309 310 313 315 317 319 319 321 321 325 324 325 326 327 329 331 331 331 331 333 335
226 224 224 224 227 233 237 241 244 248 252 254 257 261 265 269 271 274 278 283 288 291 295 298 301 303 306 308 311 315 315 315 317 317 320 322 324 324 324 324 326 328 329 329 330 332 332
229 230 229 229 232 236 240 244 247 249 251 254 258 263 266 269 272 276 280 284 287 292 295 296 300 301 304 307 311 311 312 314 316 317 318 320 321 321 321 323 324 325 326 327 326 330 329
233 235 235 234 237 239 242 245 249 253 255 256 259 261 265 269 274 279 282 287 291 293 292 294 296 300 304 307 308 309 312 313 316 317 316 318 318 318 318 320 321 323 324 323 324 325 327
236 237 238 238 240 243 244 247 250 251 254 256 259 263 266 269 272 276 279 282 285 287 289 292 297 300 303 305 306 308 311 312 314 315 314 316 315 315 317 318 320 324 323 322 321 321 324
240 241 242 245 245 247 248 249 252 253 255 257 260 263 266 270 272 274 277 280 282 286 290 294 296 299 301 303 305 308 309 310 311 312 313 313 313 313 317 321 322 322 322 320 319 320 323
241 244 245 246 248 250 252 254 255 258 260 260 259 262 265 268 272 275 278 281 284 288 291 293 295 299 300 301 304 306 306 308 308 308 309 309 312 313 317 319 322 321 319 317 322 322 327
244 246 248 250 250 251 254 256 258 260 261 262 264 266 267 270 270 274 278 283 286 289 291 293 294 297 298 300 301 303 304 305 305 306 306 307 311 313 315 317 317 321 323 320 321 324 327
246 247 249 252 254 255 255 256 258 261 262 265 268 270 272 274 277 281 284 287 288 289 290 292 293 295 296 298 298 301 304 306 306 305 304 306 309 307 313 312 311 314 316 316 318 323 324
247 248 250 252 254 255 256 258 260 262 263 265 267 270 273 276 278 279 282 285 285 286 288 290 291 293 294 295 298 301 301 302 303 305 305 307 309 310 312 313 313 316 319 316 319 323 323
245 246 248 250 251 253 256 258 259 260 261 264 267 268 271 274 277 279 280 281 283 285 287 287 288 290 295 297 296 299 301 304 304 304 305 305 307 307 311 309 313 321 321 315 314 318 319
245 244 249 249 251 253 255 258 260 264 265 268 270 269 270 273 277 276 278 279 281 282 285 288 291 293 293 294 296 298 299 301 302 304 305 307 308 304 309 311 314 321 313 313 315 317 320
255 254 253 255 257 259 259 259 263 264 266 268 267 270 273 275 276 279 279 280 282 284 286 288 288 291 293 294 296 297 298 300 302 303 303 307 307 305 307 308 311 314 313 312 314 318 318
254 256 257 258 258 258 259 260 262 264 266 269 270 269 270 273 277 279 280 281 284 286 288 290 292 293 293 294 296 296 296 300 302 304 305 308 306 311 312 311 309 313 313 315 318 316 315
252 252 254 257 260 262 263 264 264 264 266 268 269 270 271 271 275 278 278 281 284 286 288 289 290 290 290 291 292 294 297 298 302 304 304 304 306 305 305 306 310 314 311 312 312 315 312
255 256 255 254 255 257 259 261 263 265 266 269 270 270 270 271 274 276 278 279 280 282 284 286 287 289 289 291 293 296 297 298 302 298 302 305 303 303 303 306 308 312 309 309 309 311 310
254 255 257 259 258 257 257 259 261 263 265 266 267 270 271 272 274 275 277 280 282 282 283 286 287 290 291 292 294 298 298 299 304 305 306 303 303 305 305 304 306 307 307 306 307 306 306
254 256 258 258 258 260 261 262 262 263 264 265 267 269 271 273 274 275 276 279 280 283 285 286 288 291 293 293 293 295 297 301 300 300 300 301 301 303 303 303 303 303 304 304 305 304 305
254 256 256 257 260 261 261 262 263 265 267 268 268 270 272 274 274 273 276 278 280 282 285 287 289 290 288 289 288 293 299 298 297 298 299 299 300 301 301 301 301 301 301 300 301 302 305